Location: ???????????
(55.5758°N, 38.4970°E)
Time: 16:36:54
(UTC+00:00)

SeaSat 1 - Pass Details

Date: 15 November 2025
Orbit: 737 x 739 km, 108.0° (Epoch: 14 December)

Event Time Altitude Azimuth Distance (km) Brightness Sun altitude
Rises 02:18:28 0° 36° (NE) 3,188 6.2 -22.5°
Reaches altitude 10° 02:21:19 10° 19° (NNE) 2,263 5.1 -22.1°
Enters shadow 02:24:28 19° 339° (NNW) 1,735 4.1 -21.7°
